GFSNW_850_spd_024.txt.gz
Wind_Speed
42 43 40 41 43 40 36 29 9 22 32 16 18 14 22 27 24 12 10 16 16 15 12 13 12 14 13 13 10 5 6 3 4 10 2 6 8 9 10 3 4 2 1 7
38 42 41 42 44 45 45 29 19 30 34 13 12 19 25 27 24 14 15 15 16 10 11 7 10 5 5 7 3 1 1 2 4 8 7 8 8 11 10 5 3 5 3 4
42 41 42 43 46 47 39 27 10 14 27 26 20 23 20 24 31 17 16 16 14 8 10 9 9 6 4 4 3 4 4 5 8 6 10 4 7 12 10 10 3 3 8 13
43 41 41 40 46 47 41 23 14 18 13 19 19 20 18 25 21 22 19 16 17 11 8 11 7 7 7 3 2 2 2 7 10 13 15 3 10 11 8 12 10 10 10 14
43 43 40 38 45 45 44 23 17 25 13 28 21 20 25 24 22 17 15 15 13 14 9 9 10 11 8 8 7 7 5 1 3 3 11 14 12 14 13 15 13 14 14 13
45 43 41 40 45 46 31 34 24 22 19 22 20 20 22 24 18 22 23 19 14 17 5 12 12 16 12 4 9 9 6 3 2 2 5 6 5 9 16 15 14 12 10 10
45 42 39 43 40 47 37 37 20 13 15 19 23 25 23 23 21 12 11 15 14 11 19 20 17 15 12 9 6 9 3 3 1 1 1 1 7 3 5 5 8 10 11 9
42 43 42 41 36 46 50 38 20 10 9 18 26 28 22 29 27 14 11 7 10 25 12 4 4 2 3 1 3 4 6 4 2 2 4 7 11 2 2 1 3 11 10 11
34 38 38 37 49 42 57 38 23 11 11 18 42 24 24 13 6 3 6 14 15 10 2 2 4 4 5 6 6 2 3 4 1 3 2 4 0 4 3 2 2 10 10 9
32 33 34 36 52 44 55 45 33 9 11 25 36 21 17 20 13 6 14 6 4 3 2 2 2 3 6 5 6 4 2 1 4 3 2 5 2 5 1 2 3 4 7 10
31 33 30 43 46 51 49 50 30 4 10 24 33 29 25 16 22 7 13 7 4 3 2 3 2 2 3 2 6 6 6 6 3 2 2 5 5 5 3 4 5 9 9 10
33 32 35 45 42 46 49 43 26 15 23 12 17 16 19 14 14 14 20 7 13 9 3 1 3 2 2 3 2 10 3 4 2 7 4 5 5 3 3 4 6 6 7 9
34 34 41 33 41 41 48 31 27 6 11 12 13 6 12 19 12 16 7 6 12 9 7 5 2 3 4 3 4 3 4 5 1 2 4 6 4 3 2 3 7 9 11 12
39 47 46 41 45 44 39 50 27 17 16 6 6 5 5 13 14 16 11 9 10 15 12 5 3 3 6 3 2 3 0 9 6 6 9 6 6 12 9 7 7 7 9 9
34 42 45 46 44 44 45 34 16 7 4 5 8 6 1 8 12 13 11 14 17 14 5 3 2 4 4 3 1 1 8 3 3 3 9 3 10 11 9 10 10 10 9 11
41 44 44 40 39 36 26 7 3 12 9 8 3 4 5 6 9 10 11 12 12 9 5 3 5 4 4 3 3 6 11 7 6 3 5 4 10 12 12 13 12 12 12 10
43 39 37 38 38 33 3 3 9 12 10 6 4 4 4 12 14 11 8 9 5 6 5 3 5 4 4 3 3 14 7 5 4 4 3 11 7 10 11 12 13 12 12 12
36 37 36 36 37 26 4 7 14 12 8 7 3 0 5 5 4 4 3 5 5 6 4 3 3 4 1 2 10 10 6 5 7 6 9 14 15 14 13 12 12 14 15 14
37 34 30 30 28 8 2 11 9 7 10 3 2 4 4 5 4 4 3 2 2 3 2 2 5 1 3 6 10 8 5 6 8 10 13 14 14 14 13 13 14 14 12 11
40 42 20 12 13 14 11 5 4 7 7 4 1 2 3 3 4 3 3 3 3 2 2 4 1 2 6 6 7 8 5 6 11 16 15 14 14 14 13 13 13 12 11 8
26 9 7 20 17 6 5 4 4 5 1 2 1 3 3 4 2 3 3 2 0 4 3 4 3 3 7 8 9 6 7 10 9 12 14 14 15 15 13 10 9 8 6 7
13 21 21 10 5 6 5 3 2 2 1 1 1 3 4 4 4 4 3 3 2 3 6 3 4 4 13 12 10 10 11 15 17 19 20 17 14 12 10 9 9 9 9 8
27 9 6 5 4 4 1 4 1 1 2 4 4 2 3 4 5 5 3 3 2 9 2 3 2 12 14 14 16 17 18 19 18 17 14 13 12 11 9 10 10 8 6 7
7 5 5 4 3 3 0 2 1 3 2 9 8 4 4 4 4 1 4 1 3 3 3 3 4 15 19 18 21 21 17 17 17 14 12 12 11 11 10 9 8 5 5 7
8 6 4 3 3 5 2 2 4 4 6 6 4 6 5 2 4 2 4 2 3 4 1 2 12 22 22 21 18 19 19 14 12 11 11 11 10 9 8 6 4 4 6 8
6 7 3 2 3 6 10 12 11 8 8 7 6 3 3 4 2 1 1 3 1 2 2 9 22 25 23 18 16 17 15 14 11 10 11 10 8 6 4 2 3 5 8 10
5 6 13 11 10 9 8 10 11 9 5 3 3 4 3 0 1 3 4 3 2 4 9 16 23 26 22 18 18 17 14 12 10 9 9 8 6 4 2 1 5 6 10 12

GFSNW_850_spd_027.txt.gz
Wind_Speed
49 43 43 45 41 39 37 21 7 21 35 11 8 13 12 12 19 21 12 2 3 7 6 8 9 11 2 14 13 9 10 5 4 15 15 6 4 5 5 5 5 2 4 5
52 37 47 47 45 47 45 19 14 26 40 12 11 7 14 21 20 17 6 2 2 3 3 6 8 4 4 8 5 6 2 0 2 7 6 5 3 4 4 4 3 4 5 5
44 48 47 47 48 51 43 16 8 15 28 31 19 16 17 21 22 21 22 7 8 6 4 14 7 4 2 5 5 6 4 3 6 6 7 2 3 3 5 5 4 3 5 5
37 41 37 48 48 52 43 17 10 17 13 18 13 18 14 17 17 21 14 8 9 7 4 1 5 5 4 3 4 3 4 4 1 3 5 5 4 3 6 5 6 6 8 7
40 36 41 45 47 50 49 11 15 24 7 25 16 19 21 24 20 15 17 10 10 7 5 6 7 7 5 5 1 4 1 1 2 2 6 7 4 6 7 7 6 2 3 6
35 36 40 45 50 50 27 27 24 24 12 19 17 21 22 22 15 15 18 10 5 6 4 11 11 7 12 11 8 6 5 5 3 3 4 5 6 7 7 5 4 4 4 5
37 37 42 47 48 51 27 33 14 11 8 13 23 21 23 25 23 11 14 22 7 13 28 24 21 25 19 15 8 7 5 5 3 3 3 1 8 1 5 5 5 8 8 8
39 36 45 48 49 44 51 24 17 1 3 16 18 21 24 23 26 19 4 2 14 28 9 4 4 5 5 3 4 6 4 5 2 4 4 5 7 3 2 3 4 5 7 8
41 40 46 45 45 40 42 40 12 5 2 15 33 26 27 12 7 3 3 12 21 17 3 4 4 4 6 4 3 7 6 5 4 2 4 6 6 3 6 4 2 6 12 9
41 47 47 45 42 43 39 35 36 11 6 14 26 26 25 27 7 5 6 8 2 6 3 3 3 3 7 6 9 4 3 3 5 2 2 7 6 7 2 6 6 7 10 9
39 44 40 39 33 39 42 44 26 14 7 12 25 36 23 21 21 7 16 7 8 2 4 4 3 3 5 4 7 7 6 6 3 3 3 6 9 4 6 6 10 9 8 7
34 36 36 34 34 40 46 39 41 22 15 12 8 37 21 30 29 24 26 10 14 10 4 2 4 2 2 3 3 3 1 6 5 6 6 9 8 13 14 11 12 12 11 11
33 32 34 33 35 45 46 42 21 24 14 25 16 17 21 26 28 28 13 10 11 6 9 6 3 4 4 3 4 3 1 6 4 5 2 3 8 19 21 17 14 10 9 6
32 30 35 29 35 40 45 38 36 15 5 2 3 13 21 25 29 27 19 21 17 21 18 7 3 4 7 4 4 4 5 5 6 2 3 21 18 17 16 15 13 10 8 7
31 34 29 32 34 34 35 36 43 24 13 4 2 17 12 18 23 24 19 19 24 18 5 4 3 6 5 1 3 1 4 5 4 4 5 16 11 16 10 11 11 9 6 8
31 31 32 35 26 33 38 17 40 33 31 8 3 6 9 12 15 17 16 18 14 7 6 2 4 4 5 3 3 1 14 15 14 8 11 20 18 12 9 11 10 9 9 10
29 32 36 30 31 40 34 7 2 17 28 9 2 3 7 13 15 13 11 12 6 6 5 3 5 3 6 3 4 11 17 15 15 17 24 19 10 13 12 11 13 12 14 15
32 36 31 28 35 35 37 19 7 21 9 7 4 2 3 5 5 4 4 5 5 8 4 3 4 3 3 2 9 20 18 18 15 10 13 24 24 18 16 13 16 19 21 21
36 35 32 28 24 14 15 16 19 14 8 5 4 3 3 1 5 4 4 5 3 3 2 1 4 1 2 2 16 16 19 10 22 24 23 20 19 21 16 18 20 21 18 14
36 34 13 11 20 11 7 8 5 6 7 6 2 3 1 3 3 2 3 3 3 2 2 3 3 2 10 15 17 14 13 20 25 26 21 22 21 21 21 20 18 16 12 11
19 3 6 20 13 6 8 5 5 3 4 3 4 4 2 2 3 2 2 2 1 3 3 4 1 1 5 12 15 11 13 16 15 13 15 17 25 25 20 17 15 13 11 11
6 17 17 11 6 8 6 3 2 3 3 1 2 6 4 4 3 4 2 3 2 2 4 3 3 1 18 14 11 11 11 14 20 22 25 24 22 16 15 16 15 13 12 11
29 7 6 6 8 7 3 1 2 3 4 5 5 3 4 3 4 5 3 3 1 9 2 3 1 13 16 16 18 21 21 25 27 25 22 18 17 16 14 15 13 13 11 9
8 6 6 4 3 4 4 3 3 3 3 7 10 5 3 2 4 1 4 1 2 2 3 3 3 16 19 19 24 26 25 20 17 18 18 18 17 17 16 14 12 9 7 6
8 8 5 4 3 6 2 4 5 4 4 5 5 3 4 1 3 2 3 2 2 1 2 1 12 19 21 25 25 25 24 18 18 18 17 17 16 16 16 12 9 6 3 2
7 9 4 6 4 6 7 11 7 5 5 6 4 3 3 3 2 2 3 4 2 2 2 7 17 21 22 23 24 21 19 17 15 16 16 16 15 12 11 9 6 4 2 3
6 6 14 10 9 8 9 9 9 6 5 2 3 3 1 1 3 3 3 2 2 3 7 13 20 23 20 20 20 18 16 15 15 14 14 13 12 11 8 5 3 1 3 5

GFSNW_850_spd_030.txt.gz
Wind_Speed
51 43 39 38 37 37 35 29 8 27 39 13 9 15 13 15 23 13 8 4 10 9 9 8 9 11 9 13 18 10 8 5 3 10 8 2 4 6 6 5 4 1 4 5
50 44 35 37 41 46 42 19 14 33 39 12 13 8 19 24 12 7 4 5 7 2 6 5 5 1 2 5 10 9 7 1 2 7 6 4 5 6 4 4 4 6 5 5
49 48 37 42 47 50 48 17 9 14 29 30 21 18 16 19 23 20 14 9 8 2 3 2 4 4 2 3 6 6 12 4 7 7 6 3 2 1 3 5 3 4 6 5
43 40 44 46 45 54 53 20 10 19 15 19 15 20 14 21 14 15 10 9 17 9 4 4 6 5 2 4 6 3 4 5 4 4 4 1 1 5 4 5 5 5 8 8
42 40 46 51 45 54 54 15 8 24 8 26 20 21 23 26 19 11 18 14 12 8 7 8 8 8 4 5 2 3 2 3 1 2 3 3 3 6 5 5 3 5 5 4
43 43 42 48 46 57 33 42 26 26 12 18 17 23 24 26 20 15 32 12 14 5 9 7 11 19 20 14 9 5 5 6 3 4 4 4 5 7 7 6 3 4 4 4
43 43 49 44 52 44 35 43 13 14 9 15 23 24 23 27 21 20 20 34 10 8 22 27 25 27 19 15 6 7 6 5 2 3 3 2 7 5 3 9 5 6 9 5
39 40 44 39 48 41 47 27 23 5 5 13 14 26 24 19 28 17 27 12 18 29 10 4 5 5 6 5 7 5 3 4 2 4 3 5 6 4 5 5 1 1 6 5
39 39 36 38 38 48 66 35 27 3 3 12 20 22 29 18 10 12 7 14 19 19 3 4 5 5 6 3 4 6 7 6 4 3 4 7 7 4 5 6 1 6 11 5
39 38 37 37 43 50 60 39 38 8 6 9 35 16 22 27 6 8 5 10 6 6 3 3 3 3 7 6 9 5 4 3 5 2 3 7 8 7 4 5 6 10 13 11
38 37 38 38 48 48 53 29 30 18 7 18 13 30 29 24 28 9 8 7 1 3 4 3 4 3 5 4 7 7 7 6 3 3 2 7 8 5 7 7 12 16 13 10
37 39 36 45 43 43 45 29 28 19 12 12 10 17 24 47 38 24 19 7 8 8 4 1 3 2 2 4 3 3 1 7 6 8 6 6 4 5 21 21 19 15 16 12
38 37 37 49 40 40 38 33 23 34 17 20 8 8 14 30 43 32 11 8 12 10 8 5 2 4 4 4 4 4 2 7 4 4 4 4 16 19 22 20 20 18 15 13
34 38 38 37 34 27 34 34 30 18 11 3 5 6 11 23 33 42 36 30 22 18 14 4 3 4 6 4 4 5 6 9 6 4 1 17 13 18 22 21 19 17 15 12
33 34 31 33 32 29 27 27 31 24 4 5 11 5 10 21 31 37 36 36 30 20 5 4 2 4 5 2 3 1 7 7 5 5 19 10 10 17 18 18 15 13 11 15
31 30 31 28 25 26 23 11 26 29 13 4 3 4 7 12 23 27 35 36 28 15 8 3 5 4 4 4 3 3 7 13 16 10 20 16 25 19 14 16 14 13 13 13
29 28 28 23 26 31 19 8 5 31 26 2 3 6 0 8 20 12 18 20 10 7 5 3 4 3 6 3 4 9 14 16 18 24 29 22 22 14 15 15 17 16 19 19
26 25 22 27 23 22 25 14 4 22 21 7 1 4 3 7 7 5 5 5 6 8 4 4 3 4 3 1 3 23 23 24 26 26 8 20 23 22 19 18 22 24 25 24
26 26 30 24 17 12 21 29 9 8 13 3 3 1 2 3 5 5 6 7 4 4 2 1 2 2 1 2 13 22 27 13 24 19 20 26 25 23 22 23 23 24 23 20
31 31 11 5 12 16 29 13 7 12 10 6 2 1 1 4 5 6 4 6 2 2 2 3 3 1 4 11 13 20 12 21 28 32 24 26 26 24 25 23 21 22 20 18
30 7 7 18 17 16 6 3 5 1 3 3 2 4 3 5 4 3 5 1 2 3 3 4 2 2 3 11 13 13 19 24 19 11 23 21 20 26 26 23 20 18 16 15
11 19 24 24 8 4 3 3 2 4 2 3 2 5 7 6 6 4 2 2 2 2 3 3 3 1 17 16 15 17 20 20 20 18 20 22 24 24 22 21 19 17 15 15
31 9 9 3 3 7 4 1 2 3 5 2 2 4 5 4 5 5 3 3 2 2 2 2 1 9 16 20 20 20 19 19 21 23 23 25 23 20 16 20 18 17 16 14
9 7 6 5 5 4 2 2 1 0 1 7 8 5 4 5 4 2 4 1 2 2 4 4 2 15 18 22 23 24 23 21 24 25 24 23 21 21 17 16 17 15 14 12
9 9 6 6 4 7 4 3 4 5 4 3 7 6 5 2 3 2 3 2 1 1 1 1 10 18 24 26 27 26 25 23 22 22 22 21 16 16 19 17 15 12 10 8
8 10 4 6 4 6 8 9 7 3 5 5 4 3 3 3 2 2 3 2 2 1 1 3 15 21 25 26 26 23 20 20 24 21 17 16 19 19 18 16 13 10 7 5
6 5 13 7 4 3 6 5 6 5 4 2 2 4 2 0 3 3 4 3 2 3 4 10 18 25 25 25 23 21 22 20 17 18 19 20 18 16 15 14 12 8 5 2

GFSNW_850_spd_036.txt.gz
Wind_Speed
50 48 44 48 49 41 37 29 7 20 42 17 14 17 7 15 19 6 4 3 4 4 7 7 8 10 10 17 13 9 7 6 4 9 3 3 5 6 6 5 4 1 4 6
58 49 45 48 50 46 48 20 14 27 50 14 17 13 13 7 14 8 6 4 4 1 4 4 6 7 6 15 9 9 7 1 2 7 5 4 4 4 3 5 3 6 5 6
63 50 46 51 54 51 51 13 8 17 35 41 19 23 16 23 14 5 10 2 3 1 3 4 7 7 5 13 12 8 12 4 7 8 8 4 4 6 5 5 4 4 6 6
66 53 48 53 58 54 53 15 9 15 14 24 21 19 14 21 17 22 12 2 5 3 3 1 4 2 2 2 7 6 7 7 5 4 4 4 5 4 8 7 5 6 7 7
67 57 51 56 62 56 41 8 8 18 9 31 24 13 24 24 23 8 16 6 9 8 5 7 5 3 4 6 5 6 1 5 4 2 2 2 3 5 5 4 3 5 6 7
66 58 55 62 62 60 33 34 26 12 20 20 18 30 18 20 18 25 11 23 17 8 20 26 21 15 8 2 5 9 7 7 4 4 3 4 7 9 9 6 5 7 7 10
67 56 52 72 67 68 39 46 15 9 7 13 24 18 21 21 22 13 25 14 13 11 7 5 4 7 7 9 5 1 8 7 2 3 2 2 7 1 3 8 7 6 5 3
64 57 63 64 65 66 43 42 17 5 4 12 12 18 25 20 24 16 16 25 12 6 11 3 1 4 3 2 5 5 2 6 3 5 4 5 4 5 7 8 8 7 6 6
58 64 62 66 62 56 51 27 42 8 2 5 17 14 19 18 14 9 15 33 25 8 2 2 6 6 6 5 3 4 5 6 5 3 5 8 8 5 8 4 4 8 11 9
61 61 62 53 54 55 51 39 30 17 2 6 13 17 15 22 18 1 6 23 10 17 1 3 3 5 4 6 10 6 3 3 5 2 3 7 8 4 10 6 8 18 26 26
59 63 58 54 52 55 53 45 35 27 9 25 6 25 21 23 32 13 8 8 10 3 6 4 4 3 6 3 4 7 7 7 3 3 3 7 9 5 9 7 3 27 26 24
54 53 54 47 49 51 47 34 42 44 15 9 13 10 19 28 30 28 27 12 9 15 4 1 2 2 0 5 4 0 3 6 7 9 7 4 14 6 15 9 13 25 25 22
50 52 50 45 44 43 38 35 39 25 8 14 23 15 16 23 25 29 21 22 10 15 14 6 3 4 4 4 5 4 3 4 4 4 5 6 10 16 12 16 22 26 24 23
44 43 40 36 35 32 33 37 27 29 6 2 8 6 10 18 22 27 36 21 27 16 12 4 3 3 6 4 4 4 4 9 7 3 4 2 13 17 16 19 21 24 22 22
37 37 36 35 36 29 23 35 21 28 11 2 9 21 9 11 20 25 31 36 30 9 3 2 3 4 4 1 1 2 7 7 6 7 15 12 11 22 22 23 24 23 25 23
31 34 34 35 32 29 29 14 16 27 17 1 2 6 6 4 15 23 30 37 32 24 7 4 5 5 4 4 4 4 22 17 18 7 19 16 14 25 24 24 22 22 21 21
31 30 31 29 31 37 26 5 6 23 14 2 3 3 2 2 4 15 20 31 21 12 7 4 3 3 6 3 5 5 21 16 13 13 25 13 24 18 25 24 24 22 21 20
31 31 29 30 36 33 34 12 9 31 21 2 3 4 5 11 4 2 9 11 10 3 6 3 2 3 1 3 2 7 15 16 18 25 17 17 27 27 27 24 25 24 24 24
29 33 39 29 20 18 22 14 20 24 8 8 5 2 2 2 3 2 2 5 2 4 2 1 2 1 5 1 2 11 17 14 22 18 13 22 29 32 30 28 27 28 29 27
39 36 12 7 12 9 17 15 12 8 9 5 3 2 1 0 5 4 2 5 2 2 1 5 2 3 1 1 4 14 16 12 24 27 20 27 30 31 30 28 27 26 29 29
29 6 5 12 20 13 7 6 8 5 3 8 7 8 2 3 2 3 6 3 1 3 2 4 0 3 2 1 12 13 13 16 19 13 16 22 27 34 33 31 29 29 29 28
8 10 20 17 6 3 3 1 2 2 3 2 2 5 9 7 2 2 5 4 1 1 6 3 3 1 1 10 14 17 15 14 8 9 20 21 23 25 27 28 28 26 28 28
7 6 5 2 2 3 3 1 1 1 2 2 2 1 3 5 4 2 1 4 3 3 3 2 1 5 9 13 13 14 13 12 16 21 22 24 24 24 25 27 24 26 25 23
2 4 5 5 4 4 2 2 1 1 3 3 2 3 2 3 3 2 4 1 2 3 2 3 3 4 7 10 13 16 17 17 21 22 22 22 22 24 24 25 23 21 23 19
4 6 4 4 4 3 3 3 3 11 10 5 0 5 5 3 3 2 2 3 4 5 3 3 6 6 9 12 14 17 19 19 18 18 20 24 25 26 24 22 22 18 17 18
7 10 4 7 2 9 14 18 12 16 8 4 7 3 3 5 3 5 6 4 4 3 3 12 1 8 10 12 14 15 16 16 18 22 25 24 22 22 23 20 17 15 15 16
6 5 20 12 6 8 11 15 19 13 6 3 3 6 4 3 4 5 5 4 4 16 14 6 2 5 9 12 15 16 17 20 21 21 20 20 20 18 18 18 16 15 13 11

GFSNW_850_spd_042.txt.gz
Wind_Speed
46 46 46 44 42 39 35 32 7 21 41 18 10 17 32 12 23 19 10 7 6 8 12 16 16 22 16 22 21 20 15 9 8 14 5 2 7 9 10 6 6 3 5 8
51 47 47 49 47 47 44 26 11 25 42 14 13 29 29 27 18 25 14 11 9 6 5 7 17 15 17 16 20 19 13 10 11 10 6 4 8 10 10 6 2 11 7 5
46 47 50 51 54 53 50 21 6 13 34 39 29 29 25 30 29 21 21 11 7 9 6 8 4 12 6 14 21 15 21 13 16 12 13 8 8 12 14 14 7 10 11 13
46 48 53 55 62 59 54 27 9 16 15 20 29 27 24 25 23 32 22 19 15 13 6 5 6 5 7 6 7 8 11 15 16 16 16 15 17 15 14 16 16 13 13 14
50 50 53 63 69 63 49 18 12 28 22 40 32 29 28 29 32 23 24 19 23 13 13 5 2 4 1 6 6 9 8 12 10 12 12 13 15 16 16 18 17 13 17 18
51 52 48 54 72 68 36 29 28 32 21 28 23 24 32 28 25 36 27 24 15 19 20 5 9 8 11 8 2 10 8 9 7 14 10 9 10 14 16 15 13 16 16 16
53 53 53 50 74 73 45 46 28 18 12 17 22 31 31 30 24 26 24 23 18 9 9 2 8 10 6 9 14 11 6 9 6 6 4 8 12 4 16 18 18 17 16 17
55 55 56 51 76 74 47 35 27 23 10 18 22 29 31 28 25 24 27 14 18 13 6 4 5 4 7 6 7 12 12 8 4 5 9 10 5 6 9 12 18 15 18 17
55 54 54 48 74 69 46 37 39 17 15 16 30 20 27 21 19 17 29 18 9 17 4 5 7 8 11 7 5 2 7 7 8 4 7 9 9 13 13 5 16 9 13 14
52 53 51 48 69 68 45 38 37 23 16 18 19 17 21 32 21 16 19 20 11 13 5 4 7 8 10 14 7 6 5 4 11 10 7 6 3 11 15 9 14 3 9 13
46 49 52 61 63 69 48 33 44 23 11 10 5 10 22 27 32 15 19 17 11 8 9 7 7 5 7 11 10 7 9 9 5 7 6 10 15 12 11 12 3 7 10 14
50 46 43 63 61 62 47 33 37 26 8 4 1 8 11 10 36 29 28 17 21 11 8 6 4 2 2 7 10 5 4 7 5 9 6 4 31 18 25 10 9 10 12 14
42 41 54 61 61 57 38 32 29 24 8 3 7 5 13 18 21 25 18 24 16 25 16 5 4 5 5 5 10 10 6 5 4 2 9 12 17 22 11 15 14 10 11 18
34 51 55 57 58 45 42 27 27 24 9 4 7 8 9 17 19 18 24 11 20 9 20 9 4 3 9 6 8 7 8 9 7 7 12 5 14 20 22 15 15 15 13 22
46 51 51 54 54 40 34 30 29 24 10 1 9 9 15 12 15 16 22 24 14 19 6 4 5 6 3 1 2 5 9 8 6 7 14 13 19 13 20 21 24 20 20 23
47 43 52 48 47 42 35 8 20 21 10 2 2 4 13 13 17 16 24 27 25 15 10 6 6 4 6 6 12 14 23 18 20 9 11 12 11 14 10 19 18 19 21 24
54 52 46 44 40 38 15 6 10 30 18 5 3 2 5 17 14 20 20 30 29 24 19 9 14 7 5 3 9 8 21 24 22 23 18 11 19 13 14 15 18 21 19 21
37 35 34 28 28 27 7 4 17 29 16 9 3 3 5 14 7 4 17 17 20 19 10 4 8 4 3 6 9 19 20 12 15 19 19 16 11 12 10 17 20 20 22 23
38 35 33 28 13 9 8 11 21 31 9 6 4 3 0 3 3 5 6 12 4 6 5 6 8 6 8 2 6 5 5 7 9 17 16 17 11 10 11 10 13 21 20 22
37 34 11 5 9 14 17 12 11 8 4 5 2 7 2 7 4 2 4 1 3 4 4 10 4 7 2 4 7 8 7 7 8 6 5 8 11 16 15 17 13 14 19 20
22 6 5 9 18 12 2 5 5 6 3 7 5 9 4 6 2 3 2 3 1 3 4 7 5 4 5 11 7 4 1 2 4 6 7 8 9 15 17 17 18 18 20 22
4 11 19 18 6 4 3 4 3 4 2 5 4 5 15 7 4 2 2 1 1 1 5 4 4 3 14 11 6 5 3 1 1 2 3 5 8 12 17 19 24 25 25 26
14 9 5 3 1 4 4 6 3 2 0 3 6 3 6 3 2 3 2 3 1 1 2 3 4 15 18 12 7 5 2 3 5 8 8 9 13 15 18 20 20 23 24 26
4 3 3 3 2 5 3 4 1 3 3 1 6 4 2 3 2 2 1 2 2 3 4 4 7 24 18 11 5 6 10 9 11 13 14 16 17 19 19 22 23 28 31 28
8 6 4 5 5 8 10 13 11 9 5 1 5 5 5 4 4 4 2 4 5 6 5 6 22 19 13 10 10 12 14 17 19 20 22 22 24 25 27 25 26 27 28 23
5 9 6 14 5 7 12 13 9 11 4 5 7 3 4 6 3 5 7 4 5 4 6 18 19 14 13 15 16 19 20 22 25 25 25 27 28 29 29 26 23 20 18 18
6 5 20 14 4 8 13 14 14 10 1 3 4 6 7 3 4 4 5 4 4 11 13 18 20 18 19 19 22 24 26 28 28 27 26 27 26 24 22 23 20 17 15 14

GFSNW_850_spd_045.txt.gz
Wind_Speed
43 40 41 40 38 35 36 31 9 18 38 16 14 15 35 38 29 40 20 22 19 19 11 17 21 22 20 12 23 25 22 11 10 16 18 22 15 19 17 10 12 7 7 12
47 42 45 43 43 44 45 20 14 19 39 12 16 28 42 33 30 27 25 19 16 13 14 13 17 17 15 12 20 21 20 12 12 14 10 11 12 13 11 13 9 12 9 7
40 44 47 46 48 49 51 18 8 14 38 38 25 32 38 36 40 32 30 21 20 18 13 14 5 18 10 10 14 21 20 16 19 14 18 15 18 18 17 16 9 12 13 17
41 41 44 49 49 55 57 26 9 14 14 22 32 33 22 34 36 35 33 25 26 24 19 16 15 7 9 3 10 5 14 22 21 22 20 15 20 20 21 21 18 17 15 16
43 45 46 50 61 62 56 16 14 29 19 34 30 27 32 32 33 31 31 27 26 22 20 15 14 8 3 6 12 13 17 16 21 23 21 18 18 18 19 19 18 19 18 19
46 46 47 50 52 75 34 27 36 32 23 27 23 25 33 39 31 37 40 31 21 22 19 8 7 3 4 3 7 11 17 13 17 16 17 18 17 18 20 18 18 16 17 15
47 49 49 51 51 79 36 44 41 20 13 17 24 31 32 35 34 32 35 31 25 30 19 4 7 3 1 4 7 11 9 12 13 10 3 18 10 16 20 21 21 19 18 18
52 52 51 52 54 64 59 46 38 23 11 20 25 28 25 33 38 23 32 31 27 25 10 6 7 4 3 7 12 11 12 9 9 9 12 14 18 14 11 15 17 18 18 17
48 52 54 52 54 52 57 50 50 29 13 14 34 21 29 19 21 20 28 35 23 15 7 7 15 11 10 10 5 11 12 12 10 7 14 18 14 16 16 14 15 16 15 13
49 51 54 51 52 49 56 38 46 36 17 20 16 15 21 32 27 18 21 32 21 20 10 8 13 13 14 17 14 5 3 5 12 12 8 8 10 13 15 15 11 6 5 9
53 51 55 51 51 47 59 42 48 32 21 9 17 17 18 28 32 16 19 21 16 12 11 9 9 7 11 12 16 15 9 8 6 9 13 16 6 9 12 17 24 9 11 11
54 55 55 54 54 57 51 38 40 35 11 4 4 5 8 18 29 35 26 26 21 16 10 7 7 5 4 11 9 12 14 11 7 9 6 10 21 18 26 23 19 13 14 12
53 53 52 47 47 64 49 31 37 31 12 5 8 7 7 19 18 13 15 25 31 28 28 7 6 5 6 7 12 13 16 5 7 13 11 12 11 21 19 13 21 18 14 14
44 48 46 50 48 61 32 35 36 28 9 3 6 6 8 9 24 20 14 23 37 26 23 8 5 6 10 7 9 12 12 11 13 17 17 22 20 16 17 19 16 15 14 15
40 43 46 43 62 44 29 27 29 26 7 4 8 7 7 8 8 29 16 19 18 17 13 5 7 11 6 4 6 10 15 12 10 8 14 11 15 19 10 17 19 18 17 17
41 37 61 61 46 45 37 12 22 25 11 3 1 4 13 18 12 28 20 20 21 19 17 11 16 17 15 6 12 16 26 19 18 14 19 16 19 11 12 16 15 15 18 20
51 55 53 53 38 34 19 7 17 20 12 3 2 2 8 18 15 13 21 21 24 15 17 10 13 17 8 8 11 12 22 32 27 23 20 15 19 11 13 12 11 14 15 18
48 48 48 42 34 30 11 8 24 23 11 2 2 3 2 11 9 9 24 19 23 18 10 9 9 12 7 7 15 26 27 26 19 12 12 18 13 12 10 9 10 9 13 15
48 45 41 31 17 8 6 8 22 13 6 5 4 3 3 1 4 12 11 14 7 8 9 9 9 7 6 4 11 18 5 8 12 10 9 11 10 10 9 8 11 15 16 15
37 30 9 6 9 23 24 9 6 4 5 6 4 6 1 3 8 4 7 5 4 5 4 12 6 9 6 18 13 10 11 10 9 10 10 10 11 10 7 8 7 10 16 22
7 5 5 15 29 15 6 6 5 8 3 6 5 10 4 6 2 1 3 3 1 5 5 7 7 4 8 22 16 13 11 10 9 9 10 8 7 7 6 6 7 11 15 19
9 12 15 12 5 2 3 4 3 3 3 4 4 4 4 0 4 3 4 3 3 4 0 4 3 6 22 22 18 15 11 10 8 7 5 6 7 7 9 12 14 18 20 24
15 6 3 0 2 2 1 4 3 3 3 3 2 2 2 4 7 1 1 1 2 1 3 3 5 17 20 19 15 11 9 6 6 7 7 7 9 11 9 14 15 18 21 21
5 4 4 4 4 6 5 5 4 6 6 9 3 4 1 3 2 2 2 2 2 3 3 5 8 23 18 15 13 13 15 15 15 15 14 16 18 21 20 21 20 22 25 24
8 8 5 5 6 9 9 9 5 5 6 2 2 5 5 4 3 4 1 3 5 7 4 6 20 16 16 17 17 18 20 22 23 23 25 26 28 29 28 26 27 29 29 27
6 9 6 15 3 8 13 12 10 9 7 2 5 3 3 5 4 5 7 3 5 4 5 14 17 17 18 20 22 23 24 26 28 29 29 30 32 33 33 30 27 26 24 24
5 5 16 11 6 10 14 14 13 12 6 3 3 5 7 3 4 4 5 4 4 9 11 14 18 19 22 25 28 28 28 30 32 32 31 30 28 27 28 30 26 23 22 20

GFSNW_850_spd_048.txt.gz
Wind_Speed
42 42 42 38 35 32 32 28 5 19 35 16 8 17 36 33 33 35 30 25 23 23 20 19 18 21 17 15 20 25 24 4 9 15 16 16 18 17 16 8 8 4 2 6
42 42 43 43 40 40 41 17 11 22 43 12 15 23 35 34 28 32 26 30 27 25 20 18 10 20 18 10 12 18 18 14 10 14 12 17 16 15 13 13 10 12 8 6
42 42 45 44 43 45 48 17 7 14 36 35 25 26 35 33 41 31 37 25 24 24 20 18 9 12 14 7 8 12 1 14 13 10 15 14 15 15 18 13 5 8 10 13
41 38 42 38 45 48 54 23 9 16 14 22 27 25 20 27 26 36 35 28 27 20 20 16 18 16 15 9 11 3 6 15 17 15 18 18 20 21 20 20 15 14 11 16
39 39 44 42 44 48 59 15 11 30 15 32 27 24 29 32 23 26 35 27 27 22 20 18 16 15 11 12 11 11 8 10 12 15 16 20 13 22 19 19 21 19 19 17
38 40 43 45 48 59 35 32 41 30 23 23 21 25 33 32 26 26 36 31 25 20 21 19 31 15 5 9 9 13 10 6 11 12 15 18 19 18 19 15 15 12 15 12
43 43 44 46 50 56 25 36 36 13 13 16 22 32 32 32 27 26 31 37 28 30 18 9 14 13 13 16 7 1 2 11 6 4 1 22 10 13 15 14 15 18 16 13
46 47 49 49 51 55 56 27 37 20 10 18 23 28 26 31 30 23 27 36 43 37 7 6 7 4 11 10 14 7 3 4 2 5 10 12 16 16 11 11 16 19 19 17
51 51 50 52 53 52 54 28 47 35 15 13 34 17 26 17 17 18 27 41 36 35 10 5 9 5 7 10 8 10 10 9 6 2 8 17 9 14 22 14 14 11 13 13
49 50 52 52 53 52 52 46 42 32 17 30 22 11 19 26 20 13 18 32 24 13 12 8 5 4 15 11 13 5 7 8 9 9 7 5 6 14 23 19 8 12 14 21
51 48 51 52 52 50 51 37 46 37 13 16 16 11 10 23 27 14 16 17 15 7 8 8 6 7 11 13 10 10 7 7 6 6 6 13 1 10 18 9 22 15 18 14
50 45 47 48 51 49 49 36 39 42 24 5 7 14 15 18 24 22 23 23 12 11 7 7 6 4 6 11 10 13 7 9 4 7 3 14 21 18 14 14 11 17 15 16
41 40 42 46 49 47 48 41 39 17 18 11 8 7 12 20 21 17 16 24 25 19 15 7 3 4 4 2 8 9 6 18 9 5 14 18 17 19 18 17 17 16 16 15
39 42 43 46 47 42 41 38 40 25 8 4 2 14 14 14 17 14 15 14 10 23 27 13 4 5 8 7 7 8 7 7 13 11 14 21 27 23 28 11 10 12 14 12
43 38 46 46 41 38 30 32 44 26 6 4 4 11 11 7 12 11 12 8 13 15 4 3 5 4 8 4 6 7 11 13 9 4 9 11 7 7 19 11 19 23 14 12
43 45 45 47 43 41 35 11 25 26 14 6 5 10 12 11 9 13 14 20 7 13 8 7 8 23 10 3 6 9 20 22 20 9 11 9 13 19 15 16 19 18 15 19
43 44 45 46 40 33 14 7 22 28 14 3 2 2 11 19 12 7 8 20 19 9 7 6 13 12 10 4 7 10 18 24 27 26 17 16 20 11 14 14 16 12 13 15
42 43 49 40 29 26 18 15 26 24 8 4 2 0 3 13 9 5 11 14 16 10 6 8 7 8 4 8 11 20 24 25 21 8 6 6 10 11 13 15 13 12 13 13
51 47 40 33 25 11 16 25 23 13 2 2 3 2 3 0 4 7 7 11 4 6 4 2 4 3 2 8 17 22 17 12 14 14 10 9 10 11 9 12 10 8 7 6
39 34 12 6 12 24 24 10 3 2 5 4 2 6 2 1 5 2 1 4 1 3 5 5 2 3 8 21 19 18 20 18 14 13 13 14 11 10 7 6 3 2 5 7
8 4 7 30 27 10 4 4 3 3 2 6 5 7 5 4 1 1 4 3 2 4 5 7 5 4 9 21 19 15 14 15 13 11 10 9 8 6 3 4 5 7 11 13
8 14 19 18 5 4 3 3 3 4 3 4 4 5 6 6 7 2 4 3 2 4 3 3 3 6 18 17 17 16 13 10 9 8 9 9 9 8 8 8 7 9 13 15
16 5 3 1 3 3 1 5 3 2 5 7 1 3 5 5 5 2 4 8 3 2 3 4 4 18 18 16 14 16 16 14 14 16 15 14 15 14 15 16 14 15 18 18
5 5 5 5 5 5 5 5 4 4 6 13 7 4 1 5 5 3 3 3 2 3 4 5 8 17 16 15 16 19 23 24 26 26 24 25 26 26 24 22 20 21 24 23
8 7 6 6 6 8 9 11 7 10 10 8 1 2 2 3 3 5 2 4 6 7 4 4 16 17 17 19 21 24 25 27 29 29 31 32 31 31 30 26 26 26 27 28
7 9 5 13 6 8 13 12 8 11 12 4 4 3 3 7 4 6 8 4 6 4 4 11 14 21 22 23 26 28 29 31 33 35 35 35 35 35 34 31 31 30 29 28
6 6 14 10 5 9 11 10 12 11 7 3 4 6 7 3 4 4 5 4 5 11 11 14 17 21 23 25 28 31 32 33 33 33 33 33 31 30 30 31 27 26 25 24